Date String (YYYY-MM-DD hh:mm:ss) UTC,Instrument flags,absolute air pressure of the measurement (hPa),sample flow rate (lpm),inlet stack bypass flow (lpm),air temperature of the measurement (°C),ambient temperature measured by the external sensor (°C),aerosol sample conditioner tube jacket temperature (°C),OPC LED temperature (°C),internal box temperature (°C),relative humidity of the measurement (%),span deviation,mass concentration of particles derived from Lorenz-Mie calculation of OPC scattering (μg/m³),mass concentration of particles derived from Lorenz-Mie calculation of OPC scattering (μg/m³),mass concentration of particles derived from Lorenz-Mie calculation of OPC scattering (μg/m³)
DateTimeUTC,F1_M11,P_M11,Q1_M11,Q2_M11,T1_M11,T2_M11,T3_M11,T4_M11,T5_M11,U1_M11,ZSPAN_M11,X2_M11,X0_M11,X1_M11
2023-07-24 07:00:00,SystemResetWarning,0835.3,4.98,000.00,029.3,026.0,000.0,037.5,030.8,19.7,0000.0,0004.26,0006.80,0003.88
2023-07-24 07:01:00,SystemResetWarning,0835.1,5.02,000.00,029.2,025.3,000.0,037.4,030.6,19.6,0000.0,0004.26,0007.19,0003.88
2023-07-24 07:02:00,SystemResetWarning,0834.7,5.00,000.00,029.1,025.5,000.0,037.5,030.4,19.6,0000.0,0004.25,0007.66,0003.87
2023-07-24 07:03:00,SystemResetWarning,0834.8,5.00,000.00,029.1,025.8,000.0,037.5,030.4,19.7,0000.0,0004.26,0007.77,0003.86
2023-07-24 07:04:00,SystemResetWarning,0834.7,5.01,000.00,029.0,026.2,000.0,037.5,030.5,19.7,0000.0,0004.24,0007.82,0003.85
2023-07-24 07:05:00,SystemResetWarning,0834.8,5.00,000.00,029.1,026.6,000.0,037.5,030.6,19.5,0000.0,0004.22,0007.92,0003.84
2023-07-24 07:06:00,SystemResetWarning,0835.3,4.99,000.00,029.1,026.9,000.0,037.5,030.6,19.8,0000.0,0004.20,0007.84,0003.82
2023-07-24 07:07:00,SystemResetWarning,0835.3,5.00,000.00,029.1,027.2,000.0,037.6,030.7,22.1,0000.0,0004.19,0008.26,0003.80
2023-07-24 07:08:00,SystemResetWarning,0835.3,5.01,000.00,029.1,027.4,000.0,037.6,030.7,23.0,0000.0,0004.14,0008.36,0003.79
2023-07-24 07:09:00,SystemResetWarning,0834.9,5.01,000.00,029.1,027.6,000.0,037.6,030.8,22.8,0000.0,0004.13,0008.33,0003.78
2023-07-24 07:10:00,SystemResetWarning,0834.9,5.00,000.00,029.2,027.8,000.0,037.6,030.8,23.2,0000.0,0004.14,0008.36,0003.77
2023-07-24 07:11:00,SystemResetWarning,0834.9,4.99,000.00,029.2,027.9,000.0,037.6,030.9,23.1,0000.0,0004.12,0008.33,0003.75
2023-07-24 07:12:00,SystemResetWarning,0834.8,4.99,000.00,029.3,028.0,000.0,037.6,030.9,22.2,0000.0,0004.10,0008.01,0003.74
2023-07-24 07:13:00,SystemResetWarning,0834.9,5.00,000.00,029.3,028.1,000.0,037.7,031.0,21.2,0000.0,0004.08,0007.53,0003.74
2023-07-24 07:14:00,SystemResetWarning,0834.9,5.00,000.00,029.3,028.2,000.0,037.7,031.0,20.9,0000.0,0004.06,0007.46,0003.74
2023-07-24 07:15:00,SystemResetWarning,0834.9,5.00,000.00,029.4,027.8,000.0,037.7,031.0,20.5,0000.0,0004.04,0007.32,0003.73
2023-07-24 07:16:00,SystemResetWarning,0835.1,5.00,000.00,029.3,026.0,000.0,037.5,030.8,20.4,0000.0,0004.04,0007.08,0003.72
2023-07-24 07:17:00,SystemResetWarning,0835.4,4.99,000.00,029.2,025.4,000.0,037.5,030.7,20.3,0000.0,0004.02,0006.97,0003.71
2023-07-24 07:18:00,SystemResetWarning,0835.3,5.01,000.00,029.1,025.5,000.0,037.5,030.4,20.3,0000.0,0003.99,0005.98,0003.70
2023-07-24 07:19:00,SystemResetWarning,0835.4,5.01,000.00,029.1,025.9,000.0,037.5,030.4,20.3,0000.0,0003.96,0005.59,0003.68
2023-07-24 07:20:00,SystemResetWarning,0835.3,5.01,000.00,029.1,026.3,000.0,037.5,030.5,20.2,0000.0,0003.95,0005.56,0003.67
2023-07-24 07:21:00,SystemResetWarning,0835.4,5.00,000.00,029.1,026.6,000.0,037.5,030.6,20.2,0000.0,0003.93,0005.46,0003.68
2023-07-24 07:22:00,SystemResetWarning,0835.3,5.00,000.00,029.1,026.9,000.0,037.6,030.7,20.1,0000.0,0003.94,0005.48,0003.69
2023-07-24 07:23:00,SystemResetWarning,0835.4,5.00,000.00,029.1,027.2,000.0,037.6,030.7,20.0,0000.0,0003.95,0005.51,0003.70
2023-07-24 07:24:00,SystemResetWarning,0835.4,5.00,000.00,029.1,027.4,000.0,037.6,030.8,20.0,0000.0,0003.96,0005.58,0003.70
2023-07-24 07:25:00,SystemResetWarning,0835.3,4.99,000.00,029.2,027.6,000.0,037.6,030.8,20.1,0000.0,0003.98,0005.58,0003.70
2023-07-24 07:26:00,SystemResetWarning,0835.4,5.00,000.00,029.2,027.8,000.0,037.6,030.9,20.4,0000.0,0004.02,0006.20,0003.72
2023-07-24 07:27:00,SystemResetWarning,0835.4,5.00,000.00,029.2,027.9,000.0,037.6,030.9,21.2,0000.0,0004.02,0006.30,0003.73
2023-07-24 07:28:00,SystemResetWarning,0835.3,5.01,000.00,029.3,028.1,000.0,037.6,031.0,20.8,0000.0,0004.04,0006.99,0003.73
2023-07-24 07:29:00,SystemResetWarning,0835.3,5.00,000.00,029.3,028.1,000.0,037.7,031.0,20.5,0000.0,0004.08,0007.56,0003.75
2023-07-24 07:30:00,SystemResetWarning,0835.2,5.00,000.00,029.3,028.2,000.0,037.7,031.1,20.3,0000.0,0004.12,0007.64,0003.77
2023-07-24 07:31:00,SystemResetWarning,0835.3,4.99,000.00,029.4,027.8,000.0,037.7,031.1,20.3,0000.0,0004.14,0008.06,0003.79
2023-07-24 07:32:00,SystemResetWarning,0834.8,5.00,000.00,029.3,026.0,000.0,037.6,030.8,20.6,0000.0,0004.13,0008.59,0003.79
2023-07-24 07:33:00,SystemResetWarning,0834.7,5.02,000.00,029.3,025.4,000.0,037.5,030.6,21.0,0000.0,0004.13,0008.61,0003.78
2023-07-24 07:34:00,SystemResetWarning,0834.7,5.00,000.00,029.2,025.5,000.0,037.5,030.4,20.8,0000.0,0004.12,0008.65,0003.78
2023-07-24 07:35:00,SystemResetWarning,0834.7,4.99,000.00,029.1,025.9,000.0,037.5,030.5,20.6,0000.0,0004.12,0008.66,0003.77
2023-07-24 07:36:00,SystemResetWarning,0834.7,5.00,000.00,029.1,026.3,000.0,037.6,030.5,20.4,0000.0,0004.09,0008.66,0003.77
2023-07-24 07:37:00,SystemResetWarning,0834.8,5.01,000.00,029.1,026.7,000.0,037.6,030.6,20.3,0000.0,0004.05,0008.32,0003.76
2023-07-24 07:38:00,SystemResetWarning,0834.7,5.00,000.00,029.1,027.0,000.0,037.6,030.7,20.3,0000.0,0004.04,0008.23,0003.75
2023-07-24 07:39:00,SystemResetWarning,0834.7,4.99,000.00,029.1,027.2,000.0,037.6,030.7,20.2,0000.0,0004.05,0007.92,0003.75
2023-07-24 07:40:00,SystemResetWarning,0834.7,4.99,000.00,029.2,027.5,000.0,037.6,030.8,20.3,0000.0,0004.03,0007.57,0003.75
2023-07-24 07:41:00,SystemResetWarning,0834.7,5.00,000.00,029.2,027.6,000.0,037.6,030.8,20.1,0000.0,0004.02,0007.97,0003.75
2023-07-24 07:42:00,SystemResetWarning,0834.7,5.00,000.00,029.2,027.8,000.0,037.6,030.9,19.9,0000.0,0004.04,0008.15,0003.74
2023-07-24 07:43:00,SystemResetWarning,0834.7,5.01,000.00,029.2,027.9,000.0,037.7,030.9,19.8,0000.0,0004.09,0008.21,0003.75
2023-07-24 07:44:00,SystemResetWarning,0834.7,5.01,000.00,029.3,028.0,000.0,037.7,031.0,19.6,0000.0,0004.08,0008.17,0003.74
2023-07-24 07:45:00,SystemResetWarning,0834.8,5.01,000.00,029.3,028.1,000.0,037.7,031.0,19.6,0000.0,0004.07,0008.11,0003.74
2023-07-24 07:46:00,SystemResetWarning,0834.9,5.00,000.00,029.4,028.2,000.0,037.7,031.0,19.5,0000.0,0004.07,0008.08,0003.74
2023-07-24 07:47:00,SystemResetWarning,0834.8,4.98,000.00,029.4,027.8,000.0,037.7,031.0,19.4,0000.0,0004.09,0008.11,0003.74
2023-07-24 07:48:00,SystemResetWarning,0835.3,5.01,000.00,029.3,026.0,000.0,037.6,030.7,19.4,0000.0,0004.12,0008.25,0003.75
2023-07-24 07:49:00,SystemResetWarning,0835.1,5.01,000.00,029.3,025.3,000.0,037.5,030.6,19.6,0000.0,0004.12,0008.24,0003.75
2023-07-24 07:50:00,SystemResetWarning,0835.1,5.01,000.00,029.2,025.5,000.0,037.5,030.4,19.8,0000.0,0004.13,0008.21,0003.76
2023-07-24 07:51:00,SystemResetWarning,0834.8,5.00,000.00,029.1,025.9,000.0,037.6,030.4,20.0,0000.0,0004.15,0008.36,0003.76
2023-07-24 07:52:00,SystemResetWarning,0835.2,4.99,000.00,029.1,026.3,000.0,037.6,030.5,20.0,0000.0,0004.14,0008.79,0003.76
2023-07-24 07:53:00,SystemResetWarning,0835.1,5.00,000.00,029.1,026.6,000.0,037.6,030.6,20.1,0000.0,0004.13,0008.50,0003.77
2023-07-24 07:54:00,SystemResetWarning,0834.7,5.00,000.00,029.1,027.0,000.0,037.6,030.7,20.0,0000.0,0004.12,0007.90,0003.77
2023-07-24 07:55:00,SystemResetWarning,0834.7,5.00,000.00,029.1,027.2,000.0,037.6,030.7,19.9,0000.0,0004.13,0007.94,0003.78
2023-07-24 07:56:00,SystemResetWarning,0834.6,4.99,000.00,029.2,027.5,000.0,037.6,030.8,19.7,0000.0,0004.14,0007.98,0003.78
2023-07-24 07:57:00,SystemResetWarning,0834.7,4.99,000.00,029.2,027.6,000.0,037.6,030.8,19.7,0000.0,0004.13,0008.02,0003.78
2023-07-24 07:58:00,SystemResetWarning,0834.8,5.01,000.00,029.2,027.8,000.0,037.6,030.9,19.7,0000.0,0004.12,0008.12,0003.78
2023-07-24 07:59:00,SystemResetWarning,0835.1,5.00,000.00,029.3,027.9,000.0,037.7,030.9,20.0,0000.0,0004.11,0008.51,0003.77
